カタログに戻る

STARLINK-35042

運用中通信VLEO
NORAD 65481·PAYLOAD·🇺🇸 United States

打ち上げ Sep 3, 2025 から Cape Canaveral Space Force Station

Loading…

次のパス (今後24時間)

TLE

最新Source: CelesTrak SupGP

元期: Sep 15, 2026, 02:21 UTC

1 65481C 25195Z   26258.09840278  .00006810  00000+0  20123-3 0  2580
2 65481  53.1573  94.8583 0001192  85.6917 246.1659 15.34383420    13

AllMySatでSTARLINK-35042をリアルタイム追跡

Download on the App Store